This is the latest recevied weather packets stored in our database for station/object KC8ZBC. If no packets are shown the sender has not sent any weather packets the latest 10 day(s).
| Time | Temp. | Humidity | Pressure | Rain* | Wind** | Luminosity | Snow |
|---|---|---|---|---|---|---|---|
| 1777595840 | 8.33° C | 50% | 988.6 hPa | 0 mm | - | 0 W/m² | - |
| 1777595535 | 8.33° C | 51% | 988.7 hPa | 0 mm | - | 0 W/m² | - |
| 1777595231 | 8.89° C | 53% | 988.7 hPa | 0 mm | - | 0 W/m² | - |
| 1777594928 | 8.89° C | 51% | 988.7 hPa | 0 mm | - | 1 W/m² | - |
| 1777594624 | 8.89° C | 51% | 988.7 hPa | 0 mm | - | 1 W/m² | - |
| 1777594321 | 8.89° C | 51% | 988.8 hPa | 0 mm | - | 4 W/m² | - |
| 1777594017 | 8.89° C | 50% | 988.6 hPa | 0 mm | - | 5 W/m² | - |
| 1777593712 | 8.89° C | 51% | 988.7 hPa | 0 mm | - | 7 W/m² | - |
| 1777593409 | 8.89° C | 48% | 988.7 hPa | 0 mm | - | 10 W/m² | - |
| 1777593108 | 8.89° C | 50% | 988.6 hPa | 0 mm | - | 15 W/m² | - |
| 1777592807 | 9.44° C | 51% | 988.7 hPa | 0 mm | - | 17 W/m² | - |
| 1777592503 | 9.44° C | 52% | 988.5 hPa | 0 mm | - | 20 W/m² | - |
| 1777592199 | 9.44° C | 49% | 988.5 hPa | 0 mm | - | 21 W/m² | - |
| 1777591896 | 9.44° C | 51% | 988.6 hPa | 0 mm | - | 24 W/m² | - |
| 1777591592 | 9.44° C | 49% | 988.5 hPa | 0 mm | - | 24 W/m² | - |
| 1777591288 | 9.44° C | 50% | 988.8 hPa | 0 mm | - | 23 W/m² | - |
| 1777590984 | 9.44° C | 49% | 988.8 hPa | 0 mm | - | 27 W/m² | - |
| 1777590680 | 9.44° C | 51% | 988.8 hPa | 0 mm | - | 28 W/m² | - |
| 1777590376 | 9.44° C | 48% | 988.6 hPa | 0 mm | - | 29 W/m² | - |
| 1777590074 | 9.44° C | 48% | 988.9 hPa | 0 mm | - | 38 W/m² | - |
| 1777589769 | 9.44° C | 48% | 988.6 hPa | 0 mm | - | 45 W/m² | - |
| 1777589468 | 9.44° C | 50% | 988.8 hPa | 0 mm | - | 64 W/m² | - |
| 1777589164 | 9.44° C | 48% | 989 hPa | 0 mm | - | 51 W/m² | - |
| 1777588860 | 9.44° C | 47% | 988.7 hPa | 0 mm | - | 50 W/m² | - |
| 1777588556 | 10° C | 48% | 988.9 hPa | 0 mm | - | 56 W/m² | - |
* Rain latest hour (hover to see other rain measurements)
** Current wind speed in m/s (hover to see current wind gust speed)